GFA520 OBBI-OTHH

Flight info

Callsign GFA520
Flight time 0h 29m
Altitude 11000
Route BHR DCT ASTAD N318 LUBET DCT HAYYA
Aircraft A320/M-SDE3FGHIRWY/LB1

Departure

Time 2026-05-05 21:39
Airport Bahrain International Airport (OBBI)

Arrival

Time 2026-05-05 22:08
Airport Hamad International Airport (OTHH)
Time Latitude Longitude Altitude Speed Heading
2026-05-05 21:00 26.26797 50.63069 21 ft 0 kts 213°
2026-05-05 21:24 26.26799 50.63070 20 ft 2 kts 212°
2026-05-05 21:24 26.26813 50.63080 20 ft 2 kts 213°
2026-05-05 21:24 26.26827 50.63090 21 ft 2 kts 212°
2026-05-05 21:24 26.26841 50.63099 23 ft 2 kts 212°
2026-05-05 21:25 26.26855 50.63109 22 ft 2 kts 212°
2026-05-05 21:25 26.26868 50.63120 24 ft 2 kts 240°
2026-05-05 21:25 26.26875 50.63136 23 ft 2 kts 263°
2026-05-05 21:25 26.26875 50.63155 21 ft 2 kts 284°
2026-05-05 21:26 26.26872 50.63167 22 ft 1 kts 300°
2026-05-05 21:26 26.26872 50.63168 22 ft 0 kts 302°
2026-05-05 21:30 26.26873 50.63166 22 ft 1 kts 302°
2026-05-05 21:30 26.26880 50.63158 21 ft 3 kts 317°
2026-05-05 21:30 26.26919 50.63152 21 ft 6 kts 13°
2026-05-05 21:31 26.26960 50.63171 20 ft 6 kts 11°
2026-05-05 21:31 26.26998 50.63153 20 ft 5 kts 316°
2026-05-05 21:31 26.27019 50.63123 20 ft 7 kts 305°
2026-05-05 21:31 26.27072 50.63029 22 ft 20 kts 301°
2026-05-05 21:32 26.27154 50.62900 23 ft 20 kts 308°
2026-05-05 21:32 26.27233 50.62767 19 ft 21 kts 303°
2026-05-05 21:32 26.27313 50.62627 18 ft 22 kts 303°
2026-05-05 21:32 26.27396 50.62485 18 ft 22 kts 303°
2026-05-05 21:33 26.27479 50.62343 16 ft 22 kts 302°
2026-05-05 21:33 26.27562 50.62197 16 ft 22 kts 302°
2026-05-05 21:33 26.27646 50.62051 16 ft 23 kts 302°
2026-05-05 21:33 26.27732 50.61901 17 ft 23 kts 302°
2026-05-05 21:34 26.27823 50.61749 19 ft 24 kts 304°
2026-05-05 21:34 26.27912 50.61654 17 ft 0 kts 341°
2026-05-05 21:36 26.27918 50.61652 17 ft 1 kts 343°
2026-05-05 21:36 26.27948 50.61649 18 ft 10 kts
2026-05-05 21:36 26.28013 50.61685 18 ft 11 kts 40°
2026-05-05 21:37 26.28014 50.61749 18 ft 0 kts 121°
2026-05-05 21:38 26.28004 50.61768 18 ft 12 kts 121°
2026-05-05 21:38 26.27834 50.62059 17 ft 82 kts 123°
2026-05-05 21:38 26.27409 50.62789 17 ft 140 kts 123°
2026-05-05 21:38 26.26797 50.63856 72 ft 179 kts 121°
2026-05-05 21:39 26.26240 50.65047 827 ft 171 kts 110°
2026-05-05 21:39 26.26125 50.66419 1206 ft 192 kts 84°
2026-05-05 21:39 26.26380 50.67945 1397 ft 213 kts 79°
2026-05-05 21:39 26.26707 50.69638 1619 ft 233 kts 81°
2026-05-05 21:40 26.26998 50.71510 1905 ft 256 kts 83°
2026-05-05 21:40 26.27284 50.73520 2494 ft 266 kts 82°
2026-05-05 21:40 26.27572 50.75567 3236 ft 269 kts 82°
2026-05-05 21:40 26.27863 50.77643 3986 ft 273 kts 82°
2026-05-05 21:41 26.28167 50.79744 4712 ft 277 kts 81°
2026-05-05 21:41 26.28479 50.81893 5418 ft 283 kts 81°
2026-05-05 21:41 26.28792 50.84059 6105 ft 289 kts 81°
2026-05-05 21:41 26.29116 50.86294 6804 ft 294 kts 81°
2026-05-05 21:42 26.29446 50.88559 7527 ft 298 kts 80°
2026-05-05 21:42 26.29781 50.90857 8260 ft 302 kts 80°
2026-05-05 21:42 26.29953 50.93200 9002 ft 307 kts 92°
2026-05-05 21:42 26.29617 50.95557 9731 ft 311 kts 107°
2026-05-05 21:43 26.28756 50.97796 10216 ft 324 kts 119°
2026-05-05 21:43 26.27631 51.00073 10421 ft 347 kts 120°
2026-05-05 21:43 26.26409 51.02487 10697 ft 365 kts 120°
2026-05-05 21:43 26.25141 51.04981 10949 ft 371 kts 120°
2026-05-05 21:44 26.23862 51.07496 11005 ft 389 kts 120°
2026-05-05 21:44 26.22503 51.10179 11000 ft 402 kts 120°
2026-05-05 21:44 26.21126 51.12914 11008 ft 405 kts 120°
2026-05-05 21:44 26.19753 51.15649 10997 ft 405 kts 120°
2026-05-05 21:45 26.18378 51.18389 10995 ft 405 kts 120°
2026-05-05 21:45 26.17000 51.21129 11005 ft 405 kts 120°
2026-05-05 21:45 26.15620 51.23870 11004 ft 405 kts 119°
2026-05-05 21:45 26.14238 51.26613 11005 ft 405 kts 119°
2026-05-05 21:46 26.12860 51.29341 11001 ft 405 kts 119°
2026-05-05 21:46 26.11481 51.32072 11000 ft 405 kts 119°
2026-05-05 21:46 26.10114 51.34776 11009 ft 405 kts 119°
2026-05-05 21:46 26.08730 51.37513 11011 ft 405 kts 119°
2026-05-05 21:47 26.07349 51.40247 11017 ft 405 kts 119°
2026-05-05 21:47 26.05968 51.42977 11013 ft 404 kts 119°
2026-05-05 21:47 26.04587 51.45702 11017 ft 404 kts 119°
2026-05-05 21:47 26.03201 51.48430 11019 ft 404 kts 119°
2026-05-05 21:48 26.01837 51.51113 11022 ft 404 kts 119°
2026-05-05 21:48 26.00455 51.53832 11019 ft 403 kts 119°
2026-05-05 21:48 25.99074 51.56550 11022 ft 403 kts 118°
2026-05-05 21:48 25.97687 51.59279 11023 ft 403 kts 118°
2026-05-05 21:49 25.96306 51.61996 11024 ft 403 kts 118°
2026-05-05 21:49 25.94932 51.64705 11025 ft 402 kts 118°
2026-05-05 21:49 25.93559 51.67414 11027 ft 402 kts 118°
2026-05-05 21:49 25.92203 51.70086 11029 ft 402 kts 118°
2026-05-05 21:50 25.90822 51.72796 11026 ft 402 kts 118°
2026-05-05 21:50 25.89422 51.75492 11028 ft 402 kts 122°
2026-05-05 21:50 25.87565 51.77813 11026 ft 404 kts 140°
2026-05-05 21:50 25.85166 51.79425 11029 ft 404 kts 158°
2026-05-05 21:51 25.82441 51.80162 11025 ft 403 kts 175°
2026-05-05 21:51 25.79673 51.80296 11021 ft 403 kts 179°
2026-05-05 21:51 25.76866 51.80393 11016 ft 403 kts 179°
2026-05-05 21:51 25.74055 51.80482 11009 ft 403 kts 179°
2026-05-05 21:52 25.68424 51.80661 11004 ft 404 kts 179°
2026-05-05 21:52 25.65644 51.80756 11012 ft 404 kts 179°
2026-05-05 21:52 25.62826 51.80860 11013 ft 404 kts 178°
2026-05-05 21:53 25.60011 51.80965 11014 ft 405 kts 178°
2026-05-05 21:53 25.57201 51.81067 11021 ft 405 kts 179°
2026-05-05 21:53 25.54375 51.81168 11024 ft 405 kts 179°
2026-05-05 21:53 25.51558 51.81221 11020 ft 405 kts 184°
2026-05-05 21:54 25.48815 51.80741 11021 ft 398 kts 197°
2026-05-05 21:54 25.46320 51.79644 11018 ft 376 kts 210°
2026-05-05 21:54 25.44075 51.78217 11029 ft 367 kts 212°
2026-05-05 21:54 25.41919 51.76849 10945 ft 345 kts 211°
2026-05-05 21:55 25.39900 51.75579 10751 ft 324 kts 211°
2026-05-05 21:55 25.37966 51.74366 10266 ft 315 kts 212°
2026-05-05 21:55 25.36094 51.73191 9738 ft 310 kts 212°
2026-05-05 21:55 25.34227 51.72019 9172 ft 306 kts 211°
2026-05-05 21:56 25.32256 51.71162 8682 ft 305 kts 194°
2026-05-05 21:56 25.30134 51.70973 8219 ft 309 kts 176°
2026-05-05 21:56 25.28040 51.71484 7724 ft 306 kts 158°
2026-05-05 21:56 25.26077 51.72356 7256 ft 302 kts 158°
2026-05-05 21:57 25.24128 51.73214 6787 ft 300 kts 158°
2026-05-05 21:57 25.22214 51.74053 6322 ft 298 kts 158°
2026-05-05 21:57 25.20288 51.74896 6066 ft 296 kts 157°
2026-05-05 21:57 25.18366 51.75738 6019 ft 297 kts 157°
2026-05-05 21:58 25.16441 51.76579 6025 ft 297 kts 157°
2026-05-05 21:58 25.14511 51.77423 5909 ft 298 kts 157°
2026-05-05 21:58 25.12590 51.78266 5609 ft 290 kts 157°
2026-05-05 21:58 25.10781 51.79060 5416 ft 271 kts 157°
2026-05-05 21:59 25.09056 51.79814 4981 ft 264 kts 157°
2026-05-05 21:59 25.07377 51.80544 4505 ft 261 kts 157°
2026-05-05 21:59 25.05695 51.81273 3989 ft 258 kts 156°
2026-05-05 21:59 25.03944 51.81868 3080 ft 272 kts 174°
2026-05-05 22:00 25.02081 51.81527 2674 ft 276 kts 205°
2026-05-05 22:00 25.00598 51.80244 2534 ft 264 kts 234°
2026-05-05 22:00 24.99668 51.78590 2485 ft 249 kts 242°
2026-05-05 22:00 24.98880 51.76939 2488 ft 239 kts 248°
2026-05-05 22:01 24.98661 51.75168 2495 ft 233 kts 286°
2026-05-05 22:01 24.99485 51.73706 2492 ft 225 kts 328°
2026-05-05 22:01 25.00899 51.73196 2497 ft 208 kts 359°
2026-05-05 22:01 25.02286 51.72934 2495 ft 204 kts 342°
2026-05-05 22:02 25.03598 51.72345 2497 ft 203 kts 341°
2026-05-05 22:02 25.04882 51.71764 2514 ft 191 kts 341°
2026-05-05 22:02 25.06062 51.71240 2502 ft 175 kts 342°
2026-05-05 22:02 25.07143 51.70764 2490 ft 162 kts 342°
2026-05-05 22:03 25.08172 51.70313 2493 ft 157 kts 342°
2026-05-05 22:03 25.09185 51.69869 2495 ft 156 kts 342°
2026-05-05 22:03 25.10187 51.69429 2499 ft 155 kts 342°
2026-05-05 22:03 25.11190 51.68990 2498 ft 155 kts 342°
2026-05-05 22:04 25.12190 51.68551 2500 ft 155 kts 342°
2026-05-05 22:04 25.13192 51.68111 2422 ft 154 kts 342°
2026-05-05 22:04 25.14185 51.67674 2285 ft 150 kts 342°
2026-05-05 22:04 25.15149 51.67250 2095 ft 148 kts 342°
2026-05-05 22:05 25.16100 51.66832 1917 ft 147 kts 342°
2026-05-05 22:05 25.17040 51.66420 1743 ft 148 kts 342°
2026-05-05 22:05 25.17997 51.66000 1565 ft 147 kts 341°
2026-05-05 22:05 25.18953 51.65580 1374 ft 147 kts 341°
2026-05-05 22:06 25.19906 51.65160 1183 ft 147 kts 341°
2026-05-05 22:06 25.20840 51.64750 1000 ft 146 kts 340°
2026-05-05 22:06 25.21781 51.64341 837 ft 146 kts 340°
2026-05-05 22:06 25.22721 51.63929 664 ft 144 kts 340°
2026-05-05 22:07 25.23654 51.63523 469 ft 143 kts 340°
2026-05-05 22:07 25.24579 51.63114 269 ft 143 kts 339°
2026-05-05 22:07 25.25495 51.62715 69 ft 144 kts 340°
2026-05-05 22:07 25.26370 51.62342 23 ft 118 kts 341°
2026-05-05 22:08 25.27027 51.62043 20 ft 81 kts 338°
2026-05-05 22:08 25.27390 51.61883 22 ft 31 kts 338°
2026-05-05 22:08 25.27459 51.61852 23 ft 8 kts 338°
2026-05-05 22:08 25.27547 51.61812 23 ft 10 kts 335°
2026-05-05 22:09 25.27600 51.61766 23 ft 9 kts 296°
2026-05-05 22:09 25.27600 51.61697 22 ft 9 kts 262°
2026-05-05 22:09 25.27573 51.61637 22 ft 12 kts 237°
2026-05-05 22:09 25.27481 51.61530 22 ft 18 kts 172°
2026-05-05 22:10 25.27411 51.61567 24 ft 17 kts 160°
2026-05-05 22:10 25.27291 51.61614 22 ft 19 kts 159°
2026-05-05 22:10 25.27159 51.61671 22 ft 21 kts 157°
2026-05-05 22:10 25.27041 51.61635 22 ft 17 kts 200°
2026-05-05 22:11 25.26947 51.61627 24 ft 7 kts 239°
2026-05-05 22:11 25.26932 51.61553 22 ft 13 kts 255°
2026-05-05 22:11 25.26866 51.61512 22 ft 11 kts 197°
2026-05-05 22:11 25.26782 51.61473 22 ft 18 kts 205°
2026-05-05 22:12 25.26660 51.61457 22 ft 18 kts 168°
2026-05-05 22:12 25.26588 51.61395 22 ft 12 kts 224°
2026-05-05 22:12 25.26551 51.61322 22 ft 4 kts 248°
2026-05-05 22:12 25.26542 51.61298 23 ft 3 kts 248°
2026-05-05 22:13 25.26536 51.61283 22 ft 0 kts 248°